View from above orbital plane
|
View from above satellite
|
Ground track
|
The orbit data is extracted from the following two-line orbital elements,
1 40019U 14033K 21023.76360300 .00000050 00000-0 16540-4 0 9993
2 40019 97.7236 206.9675 0085614 83.8704 277.2247 14.67079424353241
Epoch (UTC): | 23 January 2021 18:19:35 |
Eccentricity: | 0.0085614 |
inclination: | 97.7236° |
perigee height: | 610 km |
apogee height: | 731 km |
right ascension of ascending node: | 206.9675° |
argument of perigee: | 83.8704° |
revolutions per day: | 14.67079424 |
mean anomaly at epoch: | 277.2247° |
orbit number at epoch: | 35324 |
The dashed part of the orbit path shows where the satellite is in the earth's shadow,
|
|